timestamp,surface_pressure_avg,surface_temp_avg,battery_voltage,lat,long
2024-02-08 00:09:00+00:00,291.688,1.09,11.06,47.84626,-54.09684
2024-02-08 00:19:00+00:00,286.0781,1.1,11.06,47.84626,-54.09684
2024-02-08 00:29:00+00:00,279.6848,1.09,11.06,47.84626,-54.09684
2024-02-08 00:39:00+00:00,270.9897,1.1,11.06,47.84626,-54.09684
2024-02-08 00:49:00+00:00,266.4431,1.1,11.06,47.84626,-54.09684
2024-02-08 00:59:00+00:00,263.6097,1.08,11.06,47.84626,-54.09684
2024-02-08 01:09:00+00:00,255.4714,1.07,11.06,47.84626,-54.09684
2024-02-08 01:19:00+00:00,245.6564,1.0,11.06,47.84626,-54.09684
2024-02-08 01:29:00+00:00,243.3714,0.9,11.06,47.84626,-54.09684
2024-02-08 01:39:00+00:00,240.4414,0.9,11.06,47.84626,-54.09684
2024-02-08 01:49:00+00:00,233.3114,0.9,11.06,47.84626,-54.09684
2024-02-08 01:59:00+00:00,228.2515,0.9,11.06,47.84626,-54.09684
2024-02-08 02:09:00+00:00,226.1998,0.9,11.06,47.84626,-54.09684
2024-02-08 02:19:00+00:00,219.7831,0.9,11.06,47.84626,-54.09684
2024-02-08 02:29:00+00:00,213.0182,0.9,11.06,47.84626,-54.09684
2024-02-08 02:39:00+00:00,213.5964,0.9,11.06,47.84626,-54.09684
2024-02-08 02:49:00+00:00,210.4498,0.9,11.06,47.84626,-54.09684
2024-02-08 02:59:00+00:00,204.8864,0.9,11.06,47.84626,-54.09684
2024-02-08 03:09:00+00:00,204.3265,0.89,11.06,47.84626,-54.09684
2024-02-08 03:19:00+00:00,203.5564,0.9,11.06,47.84626,-54.09684
2024-02-08 03:29:00+00:00,199.9048,0.89,11.06,47.84626,-54.09684
2024-02-08 03:39:00+00:00,196.6514,0.85,11.06,47.84626,-54.09684
2024-02-08 03:49:00+00:00,198.0748,0.85,11.06,47.84626,-54.09684
2024-02-08 03:59:00+00:00,197.3665,0.8,11.06,47.84626,-54.09684
2024-02-08 04:09:00+00:00,194.5315,0.78,11.06,47.84626,-54.09684
2024-02-08 04:19:00+00:00,193.5547,0.7,11.06,47.84626,-54.09684
2024-02-08 04:29:00+00:00,196.1198,0.7,11.06,47.84626,-54.09684
2024-02-08 04:39:00+00:00,201.1481,0.7,11.06,47.84626,-54.09684
2024-02-08 04:49:00+00:00,204.5148,0.79,11.06,47.84626,-54.09684
2024-02-08 04:59:00+00:00,204.9815,0.7,11.06,47.84626,-54.09684
2024-02-08 05:09:00+00:00,209.7681,0.7,11.06,47.84626,-54.09684
2024-02-08 05:19:00+00:00,217.2365,0.7,11.06,47.84626,-54.09684
2024-02-08 05:29:00+00:00,219.3781,0.7,11.06,47.84626,-54.09684
2024-02-08 05:39:00+00:00,221.2715,0.6,11.06,47.84626,-54.09684
2024-02-08 05:49:00+00:00,227.7014,0.6,11.06,47.84626,-54.09684
2024-02-08 05:59:00+00:00,231.9598,0.61,11.06,47.84626,-54.09684
2024-02-08 06:09:00+00:00,234.2564,0.6,11.06,47.84626,-54.09684
2024-02-08 06:19:00+00:00,239.3281,0.6,10.98,47.84626,-54.09684
2024-02-08 06:29:00+00:00,248.8731,0.6,10.98,47.84626,-54.09684
2024-02-08 06:39:00+00:00,255.8364,0.6,10.98,47.84626,-54.09684
2024-02-08 06:49:00+00:00,259.6897,0.6,10.98,47.84626,-54.09684
2024-02-08 06:59:00+00:00,265.1448,0.59,10.98,47.84626,-54.09684
2024-02-08 07:09:00+00:00,275.1947,0.6,10.98,47.84626,-54.09684
2024-02-08 07:19:00+00:00,284.1297,0.7,10.98,47.84626,-54.09684
2024-02-08 07:29:00+00:00,288.1564,0.6,10.98,47.84626,-54.09684
2024-02-08 07:39:00+00:00,292.388,0.5,10.98,47.84626,-54.09684
2024-02-08 07:49:00+00:00,302.4914,0.5,10.98,47.84626,-54.09684
2024-02-08 07:59:00+00:00,308.5298,0.5,10.98,47.84626,-54.09684
2024-02-08 08:09:00+00:00,313.2797,0.5,10.98,47.84626,-54.09684
2024-02-08 08:19:00+00:00,319.1364,0.5,10.98,47.84626,-54.09684
2024-02-08 08:29:00+00:00,326.9663,0.55,10.98,47.84626,-54.09684
2024-02-08 08:39:00+00:00,332.8297,0.66,10.98,47.84626,-54.09684
2024-02-08 08:49:00+00:00,339.23800000000006,0.75,10.98,47.84626,-54.09684
2024-02-08 08:59:00+00:00,345.5312,0.8,10.98,47.84626,-54.09684
2024-02-08 09:09:00+00:00,347.4246,0.87,10.98,47.84626,-54.09684
2024-02-08 09:19:00+00:00,347.9478,0.9,10.98,47.84626,-54.09684
2024-02-08 09:29:00+00:00,349.9663,0.9,10.98,47.84626,-54.09684
2024-02-08 09:39:00+00:00,353.4214,0.9,10.98,47.84626,-54.09684
2024-02-08 09:49:00+00:00,354.1013,0.9,10.98,47.84626,-54.09684
2024-02-08 09:59:00+00:00,353.6396,0.9,10.98,47.84626,-54.09684
2024-02-08 10:09:00+00:00,356.7881,0.9,10.98,47.84626,-54.09684
2024-02-08 10:19:00+00:00,359.75300000000016,0.9,10.98,47.84626,-54.09684
2024-02-08 10:29:00+00:00,363.0231,0.9,10.98,47.84626,-54.09684
2024-02-08 10:39:00+00:00,363.9481,0.9,10.98,47.84626,-54.09684
2024-02-08 10:49:00+00:00,362.4646,0.9,10.98,47.84626,-54.09684
2024-02-08 10:59:00+00:00,358.9113,0.9,10.98,47.84626,-54.09684
2024-02-08 11:09:00+00:00,356.9564,0.9,10.98,47.84626,-54.09684
2024-02-08 11:19:01+00:00,352.8479,0.9,10.98,47.84626,-54.09684
2024-02-08 11:29:01+00:00,348.1729,0.9,10.98,47.84626,-54.09684
2024-02-08 11:39:01+00:00,346.9079,0.9,10.98,47.84626,-54.09684
2024-02-08 11:49:01+00:00,343.9579,0.9,10.98,47.84626,-54.09684
2024-02-08 11:59:01+00:00,338.9696,0.9,10.98,47.84626,-54.09684
2024-02-08 12:09:01+00:00,336.5864,0.9,10.98,47.84626,-54.09684
2024-02-08 12:19:00+00:00,333.5247,0.9,10.98,47.84626,-54.09684
2024-02-08 12:29:00+00:00,326.408,0.9,10.98,47.84626,-54.09684
2024-02-08 12:39:00+00:00,320.0963,0.9,10.98,47.84626,-54.09684
2024-02-08 12:49:00+00:00,317.3546,0.9,10.98,47.84626,-54.09684
2024-02-08 12:59:00+00:00,309.9797,0.7,10.98,47.84626,-54.09684
2024-02-08 13:09:00+00:00,300.7463,0.5,10.98,47.84626,-54.09684
2024-02-08 13:19:00+00:00,294.9647,0.49,11.22,47.84626,-54.09684
2024-02-08 13:29:00+00:00,289.0881,0.5,11.22,47.84626,-54.09684
2024-02-08 13:39:00+00:00,280.998,0.5,11.22,47.84626,-54.09684
2024-02-08 13:49:00+00:00,274.608,0.6,11.22,47.84626,-54.09684
2024-02-08 13:59:00+00:00,271.6864,0.5,11.22,47.84626,-54.09684
2024-02-08 14:09:00+00:00,266.958,0.5,11.22,47.84626,-54.09684
2024-02-08 14:19:00+00:00,259.0414,0.5,11.14,47.84626,-54.09684
2024-02-08 14:29:00+00:00,251.6464,0.5,11.14,47.84626,-54.09684
2024-02-08 14:39:00+00:00,246.8264,0.51,11.14,47.84626,-54.09684
2024-02-08 14:49:00+00:00,239.3681,0.5,11.14,47.84626,-54.09684
2024-02-08 14:59:00+00:00,231.0864,0.5,11.14,47.84626,-54.09684
2024-02-08 15:09:00+00:00,225.9664,0.52,11.14,47.84626,-54.09684
2024-02-08 15:19:00+00:00,219.1248,0.56,11.14,47.84626,-54.09684
2024-02-08 15:29:00+00:00,207.6181,0.57,11.14,47.84626,-54.09684
2024-02-08 15:39:00+00:00,203.6547,0.58,11.14,47.84626,-54.09684
2024-02-08 15:49:00+00:00,203.8565,0.58,11.14,47.84626,-54.09684
2024-02-08 15:59:00+00:00,197.5948,0.6,11.14,47.84626,-54.09684
2024-02-08 16:09:00+00:00,192.2247,0.6,11.14,47.84626,-54.09684
2024-02-08 16:19:00+00:00,195.0998,0.6,11.14,47.84626,-54.09684
2024-02-08 16:29:00+00:00,195.3431,0.6,11.14,47.84626,-54.09684
2024-02-08 16:39:00+00:00,193.1848,0.67,11.14,47.84626,-54.09684
2024-02-08 16:49:00+00:00,194.0848,0.7,11.14,47.84626,-54.09684
2024-02-08 16:59:00+00:00,194.1098,0.7,11.14,47.84626,-54.09684
2024-02-08 17:09:00+00:00,191.3048,0.7,11.14,47.84626,-54.09684
2024-02-08 17:19:00+00:00,192.1431,0.7,11.14,47.84626,-54.09684
2024-02-08 17:29:00+00:00,196.0114,0.7,11.14,47.84626,-54.09684
2024-02-08 17:39:00+00:00,194.5098,0.7,11.14,47.84626,-54.09684
2024-02-08 17:49:00+00:00,196.7581,0.7,11.14,47.84626,-54.09684
2024-02-08 17:59:00+00:00,200.4048,0.7,11.14,47.84626,-54.09684
2024-02-08 18:09:00+00:00,199.4064,0.76,11.14,47.84626,-54.09684
2024-02-08 18:19:00+00:00,202.2731,0.79,11.06,47.84626,-54.09684
2024-02-08 18:29:00+00:00,206.8148,0.8,11.06,47.84626,-54.09684
2024-02-08 18:39:00+00:00,208.0331,0.8,11.06,47.84626,-54.09684
2024-02-08 18:49:00+00:00,208.3815,0.8,11.06,47.84626,-54.09684
2024-02-08 18:59:00+00:00,210.1864,0.8,11.06,47.84626,-54.09684
2024-02-08 19:09:00+00:00,215.1765,0.8,11.06,47.84626,-54.09684
2024-02-08 19:19:00+00:00,220.1964,0.8,11.06,47.84626,-54.09684
2024-02-08 19:29:00+00:00,225.213,0.8,11.06,47.84626,-54.09684
2024-02-08 19:39:00+00:00,232.7248,0.8,11.06,47.84626,-54.09684
2024-02-08 19:49:00+00:00,240.2381,0.8,11.06,47.84626,-54.09684
2024-02-08 19:59:00+00:00,248.5297,0.8,11.06,47.84626,-54.09684
2024-02-08 20:09:00+00:00,258.9481,0.8,11.06,47.84626,-54.09684
2024-02-08 20:19:00+00:00,269.7297,0.8,10.98,47.84626,-54.09684
2024-02-08 20:29:00+00:00,275.2164,0.78,10.98,47.84626,-54.09684
2024-02-08 20:39:00+00:00,280.3814,0.79,10.98,47.84626,-54.09684
2024-02-08 20:49:00+00:00,291.1613,0.79,10.98,47.84626,-54.09684
2024-02-08 20:59:00+00:00,297.8781,0.79,10.98,47.84626,-54.09684
2024-02-08 21:09:00+00:00,297.7213,0.79,10.98,47.84626,-54.09684
2024-02-08 21:19:00+00:00,303.0547,0.78,10.98,47.84626,-54.09684
2024-02-08 21:29:00+00:00,311.8364,0.78,10.98,47.84626,-54.09684
2024-02-08 21:39:00+00:00,316.703,0.79,10.98,47.84626,-54.09684
2024-02-08 21:49:00+00:00,318.2247,0.78,10.98,47.84626,-54.09684
2024-02-08 21:59:00+00:00,322.5681,0.76,10.98,47.84626,-54.09684
2024-02-08 22:09:00+00:00,325.1931,0.76,10.98,47.84626,-54.09684
2024-02-08 22:19:00+00:00,325.4463,0.74,10.98,47.84626,-54.09684
2024-02-08 22:29:00+00:00,326.3132,0.75,10.98,47.84626,-54.09684
2024-02-08 22:39:00+00:00,329.5046,0.78,10.98,47.84626,-54.09684
2024-02-08 22:49:00+00:00,333.7531,0.8,10.98,47.84626,-54.09684
2024-02-08 22:59:00+00:00,334.5179,0.8,10.98,47.84626,-54.09684
2024-02-08 23:09:00+00:00,333.2896,0.8,10.98,47.84626,-54.09684
2024-02-08 23:19:00+00:00,330.9565,0.8,10.98,47.84626,-54.09684
2024-02-08 23:29:00+00:00,332.4765,0.8,10.98,47.84626,-54.09684
2024-02-08 23:39:00+00:00,332.9564,0.86,10.98,47.84626,-54.09684
2024-02-08 23:49:00+00:00,328.4480000000001,0.9,10.98,47.84626,-54.09684
2024-02-08 23:59:00+00:00,323.7645,0.9,10.98,47.84626,-54.09684
